Theta_e
298 298 298 298 298 298 299 299 299 299 299 300 300 300 300 300 299 300 300 301 302 302 302 302 303 304 306 309 306 304 307 308 309 308 307 308 313 313 316 317 318 323 325 326 326 325 324
297 297 297 298 298 299 299 299 299 300 300 300 300 300 300 300 300 300 301 302 302 302 302 302 304 305 308 308 307 307 307 308 309 309 308 308 311 313 313 314 318 319 320 322 324 325 326
297 297 298 299 299 299 299 300 300 300 300 300 300 300 300 300 300 300 301 302 303 302 302 304 305 305 309 308 307 308 309 309 309 309 309 308 308 309 315 315 314 316 319 320 322 323 325
298 298 299 299 299 299 300 300 300 300 300 300 300 300 300 300 300 301 301 302 302 303 304 305 305 308 310 307 307 309 309 309 309 309 309 309 308 307 310 314 315 315 317 319 321 321 321
298 298 298 298 298 298 298 299 300 301 301 300 300 300 300 300 301 301 301 302 303 304 304 306 310 310 309 307 308 308 308 309 309 309 309 308 308 308 309 313 315 317 317 318 319 321 321
295 295 295 296 296 296 297 297 299 299 301 301 301 301 300 300 301 301 302 303 303 304 305 306 307 311 308 307 307 307 309 309 309 309 309 309 308 310 309 312 314 315 317 317 318 320 321
299 299 301 302 303 304 303 298 297 298 299 301 301 301 301 300 302 302 303 307 309 309 307 309 308 308 307 307 307 308 308 309 309 309 311 311 310 310 310 310 312 314 316 317 318 319 320
302 303 303 306 306 306 307 307 303 297 297 300 301 302 302 301 304 303 305 308 307 307 309 308 307 307 308 307 307 307 308 309 310 311 311 311 312 311 310 309 310 313 315 317 317 318 320
305 302 303 305 306 307 307 307 307 306 297 298 301 302 304 301 305 306 307 308 308 308 310 308 307 307 307 307 307 307 307 309 311 310 310 312 312 311 309 309 310 312 313 315 316 317 318
308 308 308 308 308 308 308 308 307 307 306 297 300 302 305 302 307 306 308 307 308 308 311 308 308 308 307 307 308 306 308 308 310 310 310 311 311 311 310 309 310 310 311 313 315 316 318
307 307 307 307 308 308 308 308 308 307 307 305 299 304 305 302 306 309 308 308 308 307 310 307 308 306 307 308 307 307 308 308 310 311 311 311 311 310 310 309 310 310 311 313 314 316 317
307 307 307 307 307 307 305 306 306 307 308 307 299 306 302 307 307 308 307 306 307 311 310 307 307 308 309 307 307 306 307 307 309 312 312 313 311 311 310 309 309 310 310 310 313 314 317
309 308 307 305 304 303 306 306 305 307 308 308 301 306 308 307 310 307 307 308 311 309 307 308 308 309 309 308 308 307 308 308 310 312 311 312 312 312 311 310 310 309 310 311 312 315 316
309 309 309 309 310 309 303 305 305 306 307 308 303 308 308 308 307 307 308 309 310 308 308 308 309 309 309 308 309 309 308 308 309 311 312 313 312 312 311 311 310 310 310 310 311 312 313
309 309 310 310 310 310 310 304 302 304 307 308 304 309 309 308 307 307 309 311 310 309 308 309 309 309 309 309 309 309 308 308 309 310 311 311 311 310 311 311 310 310 310 312 310 311 313
307 309 309 309 310 310 310 309 302 301 307 308 303 310 310 308 307 308 310 309 309 307 308 309 310 309 310 310 310 309 308 308 308 309 310 310 312 310 311 311 311 312 311 315 310 311 313
306 306 309 309 310 310 310 310 306 299 304 307 307 310 309 307 306 308 311 309 308 308 307 309 310 310 310 309 309 309 309 309 309 309 309 310 310 310 311 312 310 313 315 315 312 311 313
305 306 306 308 310 309 309 309 309 301 302 306 307 310 308 306 308 308 308 306 306 308 308 309 309 310 310 310 309 309 309 309 308 309 309 310 311 311 310 310 311 311 313 314 317 315 313
305 305 307 309 309 309 309 308 309 309 302 305 306 306 306 302 309 307 305 306 306 308 308 309 309 310 309 310 310 310 309 309 308 309 309 311 311 311 309 312 312 310 311 311 314 314 317
307 307 306 308 308 308 308 308 308 308 304 305 305 308 307 305 305 305 306 306 308 307 308 308 309 308 310 310 310 310 310 308 308 308 308 309 312 311 311 310 310 310 310 311 312 315 314
308 307 307 308 308 308 308 308 307 306 301 304 303 306 305 310 309 307 307 306 307 308 308 308 309 309 309 309 310 310 309 309 308 308 309 310 313 311 310 310 310 310 309 310 312 312 313
308 306 307 307 307 307 307 307 306 304 302 304 305 304 305 305 306 307 307 307 306 306 306 307 308 308 307 309 309 310 309 310 310 310 309 309 314 312 311 311 310 310 310 310 310 311 311
306 306 306 307 307 307 304 304 303 297 302 304 304 303 301 304 306 306 308 307 307 307 306 307 307 307 309 309 308 308 308 309 310 309 310 310 311 312 313 311 310 311 310 310 310 311 312
306 306 306 306 307 305 298 301 301 297 300 302 303 303 301 306 305 305 305 305 305 307 308 306 306 308 308 308 308 309 310 310 310 311 308 310 311 311 313 311 313 310 310 312 313 312 312
306 306 306 306 306 304 296 295 296 297 300 301 302 303 302 304 304 305 305 304 304 304 307 307 307 308 308 309 311 313 314 314 314 312 309 307 310 314 313 314 311 310 311 311 313 315 315
306 306 306 306 305 303 296 292 298 296 300 300 300 303 302 301 305 304 303 304 305 305 307 307 307 308 309 309 310 312 315 313 317 313 308 307 308 312 313 313 312 316 315 314 314 318 316
306 306 305 300 299 299 295 292 292 299 295 300 301 300 302 301 302 303 304 304 303 304 305 304 306 308 309 310 313 312 313 311 315 314 316 312 311 311 313 314 313 313 313 312 315 320 319
306 305 300 293 292 292 292 291 291 295 298 298 299 301 300 301 302 302 303 303 304 303 304 305 307 310 310 312 312 311 313 312 312 312 312 313 314 316 314 314 316 309 308 313 314 316 315
305 303 295 292 291 291 291 291 291 292 296 298 299 301 302 301 301 302 302 302 303 303 303 303 306 306 308 310 310 312 313 311 312 317 308 314 309 312 311 313 308 306 304 304 308 312 312
Wind_Speed
17 16 17 17 18 18 18 17 15 14 13 13 12 12 12 12 12 12 12 11 13 15 17 17 18 20 14 3 4 10 8 13 10 7 7 7 11 15 24 20 29 28 30 29 29 28 22
17 18 18 18 18 18 18 17 17 16 15 14 13 12 12 12 12 10 10 9 12 16 15 17 15 16 7 4 10 10 10 13 8 7 6 9 10 12 18 25 24 22 32 36 34 24 28
17 17 17 18 18 19 19 18 18 17 16 15 14 13 12 12 13 11 10 10 13 16 17 11 12 10 1 6 13 13 13 11 9 6 8 9 12 13 6 15 25 30 26 24 25 35 28
17 17 18 18 18 19 19 19 19 19 17 16 15 13 12 12 13 11 10 11 14 16 9 11 7 5 2 11 16 15 12 13 10 8 8 9 8 17 20 19 17 16 22 24 33 24 29
18 19 19 20 20 20 21 21 22 21 20 19 18 16 15 15 14 13 11 14 15 10 6 7 7 3 2 11 15 11 13 13 13 12 9 7 8 17 17 17 16 20 24 31 30 28 24
20 21 21 22 22 22 22 21 21 22 23 22 21 20 18 16 14 13 13 16 11 5 11 5 5 2 3 12 17 15 11 14 11 8 9 8 10 12 14 16 23 27 26 27 28 23 27
21 21 22 22 23 23 24 23 22 23 23 23 22 22 19 16 13 11 13 10 6 3 7 6 4 6 10 15 12 10 10 10 6 8 12 9 11 14 18 22 28 24 28 24 21 22 24
21 21 22 22 23 25 25 26 25 23 24 24 23 22 19 13 10 8 11 5 4 5 9 11 11 12 11 8 14 10 8 7 12 11 9 10 16 15 16 19 23 25 27 28 19 16 21
21 21 21 22 23 25 27 27 27 26 25 25 25 24 18 9 4 7 3 4 5 9 7 4 4 8 6 12 11 9 8 12 11 13 11 16 17 13 12 16 20 23 26 25 25 15 21
21 22 23 24 24 26 27 28 29 29 28 27 25 23 15 3 2 5 2 7 10 5 5 6 3 2 7 13 9 15 5 9 9 11 12 14 13 16 16 19 18 24 23 22 25 23 20
21 22 24 24 25 26 27 28 28 29 29 28 25 19 13 3 1 3 5 9 8 2 5 3 2 3 10 6 10 4 8 10 14 16 13 20 19 13 17 18 19 18 21 19 20 22 24
22 24 25 26 26 26 28 28 28 28 29 28 24 13 4 3 3 4 11 7 4 6 2 2 2 8 9 7 11 6 11 12 14 13 15 19 17 16 17 13 11 15 13 19 19 15 18
23 23 25 27 29 28 27 29 29 29 28 28 22 5 2 3 3 9 11 1 5 5 2 1 7 10 15 8 11 9 13 11 6 8 10 15 13 16 22 20 15 13 16 12 17 18 18
23 24 25 28 30 32 31 29 30 30 29 28 20 3 2 2 6 9 6 6 5 4 5 8 8 17 9 10 9 13 11 12 2 10 13 8 10 8 7 23 19 22 19 16 18 16 20
22 24 24 28 31 33 34 33 31 29 29 29 16 3 3 3 6 10 9 5 3 4 5 9 15 8 8 5 11 9 11 9 5 6 8 11 7 11 12 11 18 23 14 24 24 21 16
22 22 24 25 28 30 33 35 35 30 28 29 12 3 3 5 7 6 5 4 3 4 8 8 9 6 13 16 13 8 9 4 6 6 4 9 14 10 4 12 10 22 1 7 15 16 18
23 24 25 26 27 28 29 33 36 34 28 26 7 4 2 4 6 4 3 5 8 6 9 6 10 16 14 12 12 10 6 12 5 7 13 14 9 10 13 6 15 4 7 13 14 17 9
23 24 25 25 28 30 29 30 34 36 31 26 8 3 4 9 7 2 4 8 10 7 5 8 9 11 11 13 11 15 13 8 14 13 14 16 6 12 14 6 11 9 17 4 5 16 13
25 25 24 24 26 27 29 30 29 34 28 26 12 5 6 6 3 6 8 9 8 8 5 4 8 8 14 16 8 8 12 12 12 14 6 5 7 9 11 7 10 11 15 14 21 4 17
25 25 24 23 24 26 29 32 31 32 22 17 6 3 0 3 4 6 10 5 5 4 12 7 10 14 12 13 13 10 18 13 16 16 18 11 14 15 14 17 9 8 10 13 11 10 14
26 25 23 23 24 28 31 33 29 25 14 10 3 2 3 4 5 9 9 7 9 7 4 11 7 10 11 10 18 23 20 15 18 22 19 5 11 16 18 21 18 18 17 16 17 18 18
26 24 23 24 27 30 31 31 26 17 11 5 5 5 5 18 9 9 1 5 9 6 12 14 13 14 15 18 21 26 26 21 9 7 17 6 6 14 19 19 20 21 20 19 20 20 18
24 23 24 25 27 30 29 24 21 9 10 4 5 5 3 8 7 6 5 8 14 17 11 10 12 15 20 23 26 33 36 35 21 9 7 8 5 10 15 15 14 16 20 21 22 21 21
22 23 24 25 28 28 24 21 16 11 5 9 10 10 2 5 5 9 11 17 15 18 18 27 22 16 18 31 35 30 27 21 16 14 11 8 15 10 6 7 10 14 5 8 11 14 19
23 23 25 27 27 25 21 17 12 9 7 11 11 9 4 4 11 17 5 16 18 20 17 18 15 15 22 20 9 10 5 3 3 2 5 10 11 5 5 9 14 19 14 15 11 14 15
25 25 27 27 26 24 21 18 13 11 7 9 12 12 13 6 5 9 22 16 9 9 11 11 14 17 11 4 4 5 5 6 5 6 2 8 10 7 4 5 5 6 5 4 4 15 12
26 27 28 28 26 23 21 18 14 12 8 9 12 12 14 9 15 10 7 11 7 7 5 16 11 8 2 6 3 4 4 7 5 7 4 1 3 12 11 7 6 5 2 5 8 2 6
27 28 28 26 24 23 21 18 14 13 10 11 13 12 14 14 27 26 26 19 12 8 3 10 11 2 6 6 3 4 4 4 4 9 6 3 4 2 6 6 5 7 9 11 9 8 10
28 27 26 26 23 22 20 18 16 13 10 9 14 11 14 18 25 32 32 32 34 31 21 5 7 12 5 2 1 5 4 4 9 5 2 2 2 3 3 3 9 21 28 41 34 25 21
Wind_Direction
23 21 21 21 18 16 14 13 10 7 5 1 357 355 354 354 353 352 351 346 344 341 344 343 340 346 6 345 53 322 337 355 355 336 262 257 248 234 238 233 232 239 243 246 245 252 237
29 26 22 20 18 16 12 8 5 1 357 354 350 349 348 348 350 347 347 344 337 334 335 333 339 348 4 59 355 356 328 327 319 327 283 250 242 248 271 256 246 238 245 250 253 236 246
27 25 23 23 19 16 12 7 4 2 359 355 349 345 343 342 344 340 342 338 333 328 327 337 340 359 350 13 3 350 332 307 297 279 304 286 253 243 274 256 254 256 262 259 245 243 238
28 27 24 21 19 15 11 9 7 6 2 359 355 346 341 336 338 335 331 329 330 321 325 343 6 14 263 355 358 352 332 338 308 271 269 293 265 243 250 260 278 252 245 247 238 229 239
26 23 21 17 13 9 5 5 6 5 3 -0 356 351 343 338 340 338 336 335 331 329 344 349 22 315 79 333 341 332 327 324 318 287 266 263 237 241 236 235 251 236 239 231 248 231 222
25 23 22 19 15 10 6 4 2 1 358 356 353 349 344 337 340 341 344 343 340 326 351 22 342 254 271 336 333 325 336 317 304 275 254 238 242 240 228 231 232 232 235 245 259 239 229
27 24 22 20 16 13 10 6 1 358 355 351 348 346 342 335 338 340 347 341 328 235 321 294 309 289 296 316 325 316 330 328 293 258 259 238 260 257 256 242 251 265 267 254 270 243 254
19 19 15 16 13 9 8 7 3 356 353 348 343 342 339 332 339 350 6 31 26 327 298 285 261 265 284 309 309 315 332 309 309 282 264 253 248 263 276 272 262 245 252 256 258 264 244
14 13 11 9 7 5 3 1 0 358 353 347 342 339 338 326 344 1 45 26 350 336 266 264 245 283 296 310 296 287 300 312 288 283 268 263 274 300 268 255 250 253 246 249 248 244 237
14 11 9 4 3 3 1 358 356 356 354 348 341 339 340 319 53 359 10 324 333 320 269 143 196 203 305 313 255 304 261 304 271 284 298 278 287 269 256 256 250 247 249 247 250 247 244
10 6 3 1 360 360 356 354 353 353 353 348 341 339 337 150 349 9 306 319 311 164 274 70 157 311 311 292 301 329 278 307 281 290 281 273 283 268 246 258 248 261 243 247 247 239 248
10 8 5 2 358 356 355 352 350 349 350 351 343 342 43 63 33 343 343 336 151 232 237 147 284 325 313 314 312 300 294 292 277 280 271 281 273 267 258 269 266 258 255 249 241 265 244
8 8 8 8 6 359 354 351 350 348 348 352 344 333 82 33 327 333 342 237 251 270 97 56 330 323 318 303 316 331 321 307 302 305 307 314 262 244 232 253 243 235 234 234 223 225 238
4 2 3 5 3 4 4 354 351 349 348 350 346 265 207 350 335 337 327 246 266 17 312 336 316 309 297 338 333 328 310 310 235 280 302 316 309 346 302 230 236 237 231 236 232 228 230
356 1 3 1 2 360 358 360 353 350 350 349 351 209 195 283 323 337 289 260 299 339 344 319 313 293 310 288 313 317 317 315 313 349 320 314 302 302 287 275 231 247 226 260 260 281 241
348 348 351 354 355 354 353 354 355 353 353 351 1 208 231 289 312 322 273 281 283 286 306 303 302 298 313 325 311 323 311 319 304 300 322 311 302 315 338 271 226 247 313 291 239 255 234
344 342 342 344 346 350 352 354 354 351 353 355 4 258 279 352 335 273 275 326 309 309 293 285 297 295 300 316 299 299 282 297 304 310 307 290 272 286 258 232 250 259 229 236 253 238 255
341 340 341 342 344 349 353 357 355 353 349 0 356 267 304 338 255 253 283 339 325 298 279 262 280 282 295 301 289 289 286 264 300 304 297 292 287 280 279 253 202 200 241 271 268 226 248
341 340 340 344 343 343 349 350 351 350 348 349 334 295 324 357 340 326 321 295 271 289 295 286 292 285 302 287 296 289 287 288 288 289 291 330 248 279 261 166 205 232 214 205 239 278 278
341 340 338 339 338 340 345 342 340 338 341 349 332 308 324 26 352 320 333 305 307 269 280 272 268 299 293 292 275 276 281 282 277 272 284 285 260 259 277 299 310 290 273 274 269 277 253
338 337 336 336 336 337 337 336 337 339 351 1 342 30 346 302 333 321 298 283 303 318 287 295 283 260 298 295 298 288 282 292 288 276 279 257 248 258 266 276 277 276 271 261 252 260 263
335 336 336 334 337 337 337 339 345 347 15 27 2 345 323 295 304 301 356 293 298 319 310 284 285 298 303 285 282 290 291 291 265 263 217 208 266 263 267 260 257 265 266 260 254 251 253
335 336 335 333 336 338 342 345 349 352 10 353 337 327 285 305 308 313 309 327 313 314 309 273 288 303 293 289 294 289 288 281 269 243 212 188 224 252 254 244 257 265 261 254 252 247 241
336 337 337 334 335 337 343 345 353 348 329 332 305 302 282 283 323 302 295 306 305 307 294 294 297 288 287 305 302 288 273 264 260 266 194 202 222 236 266 267 249 249 285 284 294 267 245
335 333 329 331 331 333 338 341 346 345 327 300 314 294 253 266 299 296 305 313 304 304 302 301 297 306 311 309 307 315 326 226 189 230 188 213 223 242 234 229 266 282 271 246 256 269 250
333 329 329 329 329 329 334 336 325 333 315 303 287 294 262 282 235 305 308 299 293 311 303 304 316 312 309 290 330 318 342 321 324 314 163 203 227 232 247 253 259 13 88 43 290 269 243
327 329 329 328 325 323 328 330 315 313 306 284 292 282 281 259 275 271 274 301 281 272 281 301 338 315 257 315 351 318 313 342 307 309 326 169 183 226 238 246 256 345 37 326 252 26 6
326 329 331 331 330 327 325 324 317 307 323 289 280 278 271 274 283 275 272 264 260 235 254 309 315 225 303 339 332 353 307 328 291 296 315 315 313 240 223 247 256 13 322 226 265 320 331
325 328 330 331 331 328 326 323 318 307 294 296 283 277 280 267 269 285 277 264 258 256 258 252 285 316 278 301 305 306 307 302 314 305 121 -0 266 301 272 341 266 279 263 254 259 282 289